timestamp,wave_ht_sig,wave_ht_max,wave_period_avg,timestamp_internal,wave_ht_sig_Hm0,wave_period,wave_period_peak,wave_direction_peak_spectral,wave_spread_peak,sea_surface_temp_avg,peak_power_spectral_density
2023-08-29T00:00:00Z,1.4,2.3,5.9,2023-08-28T23:30:00Z,1.4,4.8,5.9,267,38,17.2,1.141329
2023-08-29T00:30:00Z,1.3,2.6,5.7,2023-08-29T00:00:00Z,1.5,4.9,6.3,271,39,17.3,2.392152
2023-08-29T01:00:00Z,1.4,2.6,5.8,2023-08-29T00:30:00Z,1.4,4.8,6.3,274,49,17.3,1.668947
2023-08-29T01:30:00Z,1.2,2.0,5.8,2023-08-29T01:00:00Z,1.5,4.8,6.3,274,40,17.4,1.93904
2023-08-29T02:00:00Z,1.2,2.0,5.7,2023-08-29T01:30:00Z,1.3,4.7,5.9,274,34,17.4,1.652341
2023-08-29T02:30:00Z,1.2,2.0,5.9,2023-08-29T02:00:00Z,1.3,4.6,5.6,254,40,17.4,0.987275
2023-08-29T03:00:00Z,1.1,2.2,5.8,2023-08-29T02:30:00Z,1.3,4.7,6.3,285,41,17.4,1.339362
2023-08-29T03:30:00Z,1.1,2.1,5.9,2023-08-29T03:00:00Z,1.3,4.7,5.9,270,41,17.4,1.366419
2023-08-29T04:00:00Z,1.1,1.7,5.8,2023-08-29T03:30:00Z,1.2,4.6,6.3,260,48,17.4,1.129972
2023-08-29T04:30:00Z,1.0,2.2,5.8,2023-08-29T04:00:00Z,1.2,4.6,5.9,270,40,17.4,1.267686
2023-08-29T05:00:00Z,1.1,1.9,5.9,2023-08-29T04:30:00Z,1.2,4.5,6.3,266,48,17.4,0.982351
2023-08-29T05:30:00Z,1.0,1.8,6.2,2023-08-29T05:00:00Z,1.2,4.5,5.6,268,38,17.4,0.800269
2023-08-29T06:00:00Z,1.0,1.6,6.0,2023-08-29T05:30:00Z,1.1,4.6,6.3,251,51,17.4,0.800269
2023-08-29T06:30:00Z,1.0,1.5,5.8,2023-08-29T06:00:00Z,1.1,4.5,6.3,263,49,17.4,0.626375
2023-08-29T07:00:00Z,1.0,1.8,6.1,2023-08-29T06:30:00Z,1.1,4.6,5.9,240,42,17.4,1.022441
2023-08-29T07:30:00Z,0.9,1.5,6.0,2023-08-29T07:00:00Z,1.1,4.7,5.9,285,43,17.4,0.788355
2023-08-29T08:00:00Z,0.9,1.5,5.8,2023-08-29T07:30:00Z,1.0,4.7,5.9,261,47,17.3,0.475777
2023-08-29T08:30:00Z,0.9,1.6,5.9,2023-08-29T08:00:00Z,1.0,4.8,5.9,258,39,17.4,0.948563
2023-08-29T09:00:00Z,1.0,1.7,6.0,2023-08-29T08:30:00Z,1.0,4.7,5.6,249,33,17.5,0.735057
2023-08-29T09:30:00Z,1.0,1.7,5.9,2023-08-29T09:00:00Z,1.1,4.9,5.6,264,39,17.5,0.692251
2023-08-29T10:00:00Z,1.0,1.5,6.2,2023-08-29T09:30:00Z,1.1,4.9,5.9,267,37,17.4,1.080251
2023-08-29T10:30:00Z,0.9,1.6,6.1,2023-08-29T10:00:00Z,1.0,5.0,5.6,258,39,17.4,0.76124
2023-08-29T11:00:00Z,0.9,1.8,6.0,2023-08-29T10:30:00Z,1.0,5.1,5.9,261,39,17.3,0.897801
2023-08-29T11:30:00Z,0.9,1.8,6.1,2023-08-29T11:00:00Z,1.0,4.9,5.3,260,36,17.7,0.738742
2023-08-29T12:00:00Z,1.0,1.7,6.1,2023-08-29T11:30:00Z,1.0,5.0,7.1,177,44,17.7,0.507729
2023-08-29T12:30:00Z,1.0,1.4,6.0,2023-08-29T12:00:00Z,1.1,5.1,6.7,211,41,17.8,0.716909
2023-08-29T13:00:00Z,0.9,1.5,6.1,2023-08-29T12:30:00Z,1.1,5.1,5.6,243,37,17.8,0.788355
2023-08-29T13:30:00Z,0.9,1.8,6.1,2023-08-29T13:00:00Z,0.9,4.9,6.7,202,43,17.9,0.428353
2023-08-29T14:00:00Z,0.9,1.8,6.1,2023-08-29T13:30:00Z,1.0,5.0,7.1,183,42,17.9,0.675159
2023-08-29T14:30:00Z,0.9,1.4,6.3,2023-08-29T14:00:00Z,1.0,4.9,6.7,192,36,18.0,0.601814
2023-08-29T15:00:00Z,0.9,1.5,6.4,2023-08-29T14:30:00Z,1.0,5.0,7.7,164,42,18.1,0.586955
2023-08-29T15:30:00Z,0.9,1.5,6.7,2023-08-29T15:00:00Z,1.0,4.9,7.7,168,36,18.1,0.561128
2023-08-29T16:00:00Z,0.8,1.5,6.3,2023-08-29T15:30:00Z,1.0,5.0,7.1,190,36,18.2,0.688798
2023-08-29T16:30:00Z,0.8,1.4,6.8,2023-08-29T16:00:00Z,0.9,5.1,7.1,181,36,18.2,0.569608
2023-08-29T17:00:00Z,0.8,1.6,6.7,2023-08-29T16:30:00Z,0.9,5.0,15.4,126,41,18.3,0.437007
2023-08-29T17:30:00Z,0.8,1.2,6.6,2023-08-29T17:00:00Z,0.9,5.2,7.7,156,35,18.3,0.566767
2023-08-29T18:00:00Z,0.8,1.2,6.7,2023-08-29T17:30:00Z,0.9,4.9,5.9,205,53,18.3,0.357791
2023-08-29T18:30:00Z,0.8,1.2,6.4,2023-08-29T18:00:00Z,0.8,4.9,15.4,136,48,18.4,0.374259
2023-08-29T19:00:00Z,0.8,1.2,6.8,2023-08-29T18:30:00Z,0.8,4.9,7.1,163,40,18.3,0.426217
2023-08-29T19:30:00Z,0.7,1.2,6.5,2023-08-29T19:00:00Z,0.9,4.9,7.7,152,37,18.3,0.419871
2023-08-29T20:00:00Z,0.7,1.4,6.4,2023-08-29T19:30:00Z,0.8,4.8,15.4,143,44,18.2,0.617049
2023-08-29T20:30:00Z,0.7,1.3,6.7,2023-08-29T20:00:00Z,0.8,4.6,6.7,185,47,18.2,0.336955
2023-08-29T21:00:00Z,0.7,1.5,6.5,2023-08-29T20:30:00Z,0.8,4.8,7.1,168,50,18.2,0.338644
2023-08-29T21:30:00Z,0.8,1.1,6.6,2023-08-29T21:00:00Z,0.8,4.8,5.9,199,51,17.9,0.372393
2023-08-29T22:00:00Z,0.8,1.4,7.0,2023-08-29T21:30:00Z,0.8,4.9,7.1,176,45,17.8,0.38182
2023-08-29T22:30:00Z,0.7,1.2,6.5,2023-08-29T22:00:00Z,0.8,5.0,15.4,133,39,18.0,0.403408
2023-08-29T23:00:00Z,0.7,1.2,6.6,2023-08-29T22:30:00Z,0.8,4.8,6.7,178,45,18.0,0.322128
2023-08-29T23:30:00Z,0.7,1.2,6.6,2023-08-29T23:00:00Z,0.8,4.8,6.7,183,45,18.0,0.278648
